Location: Asheville, NC
(35.6000°N, 82.5500°W)
Time: 02:29:08
(UTC-04:00)

RS-15 - Pass Details

Date: 09 March 2018
Orbit: 1890 x 2154 km, 64.8° (Epoch: 20 June)

Event Time Altitude Azimuth Distance (km) Brightness Sun altitude
Exits shadow 01:50:18 38° 358° (N) 2,927 8.9 -55.0°
Drops below altitude 10° 01:57:29 10° 23° (NNE) 4,577 10.4 -54.2°
Sets 02:01:03 0° 29° (NNE) 5,550 11.0 -53.8°
